Change the Weather History Date:

Saturday, June 29, 2013

  Actual Average Record
Temperature  
Mean Temperature 81 °F -  
Max Temperature 99 °F - - ()
Min Temperature 63 °F - - ()
Cooling Degree Days 16    
Growing Degree Days 31 (Base 50)    
Moisture  
Dew Point 47 °F    
Average Humidity 30    
Maximum Humidity 59    
Minimum Humidity 6    
Precipitation  
Precipitation 0.00 in 0.01 in - ()
Sea Level Pressure  
Sea Level Pressure 30.10 in    
Wind  
Wind Speed 3 mph ()    
Max Wind Speed 10 mph    
Max Gust Speed -    
Visibility 19.0 miles    
Events      
T = Trace of Precipitation, MM = Missing Value Source: Averaged Metar Reports

Daily Weather History Graph

Daily Weather History Graph

Search for Another Location

Airport or City:

Trip Planner

Search our weather history database for the weather conditions in past years. The results will help you decide how hot, cold, wet, or windy it might be!

Date:

Astronomy

Jun. 29, 2013 Rise Set
Actual Time 7:00 AM CEST 9:45 PM CEST
Civil Twilight 6:28 AM CEST 10:16 PM CEST
Nautical Twilight 5:49 AM CEST 10:55 PM CEST
Astronomical Twilight 5:05 AM CEST 11:40 PM CEST
Moon 1:14 AM CEST (6/29) 1:49 PM CEST (6/29)
Length of Visible Light 15h 48m
Length of Day
14h 45m
Waning Gibbous, 58% of the Moon is Illuminated
Jun 29
Waning Gibbous
Jun 30
Last Quarter
Jul 8
New
Jul 16
First Quarter
Jul 22
Full

Hourly Weather History & Observations

Time (CEST) Temp. Dew Point Humidity Pressure Visibility Wind Dir Wind Speed Gust Speed Precip Events Conditions
2:00 AM 71 °F 48 °F 32% 30.14 in - SW 2.3 mph - -  
7:00 AM 64.4 °F 50.0 °F 59% 30.15 in - Variable 1.2 mph - N/A   Clear
8:00 AM 67 °F 50 °F 44% 30.17 in 19 mi Calm Calm - -  
8:00 AM 66.2 °F 50.0 °F 56% 30.15 in - Calm Calm - N/A   Clear
8:37 AM 69.8 °F 50.0 °F 49% 30.15 in - Calm Calm - N/A   Clear
9:00 AM 69.8 °F 50.0 °F 49% 30.18 in - Variable 1.2 mph - N/A   Clear
10:00 AM 73.4 °F 50.0 °F 44% 30.18 in - Variable 2.3 mph - N/A   Clear
11:00 AM 77.0 °F 50.0 °F 39% 30.15 in - Calm Calm - N/A   Clear
12:00 PM 82.4 °F 50.0 °F 32% 30.15 in - East 6.9 mph - N/A   Clear
1:00 PM 86.0 °F 50.0 °F 29% 30.12 in - East 6.9 mph - N/A   Clear
2:00 PM 93 °F 47 °F 12% 30.10 in 25 mi ENE 4.6 mph - -  
2:00 PM 91.4 °F 50.0 °F 24% 30.09 in - East 3.5 mph - N/A   Clear
3:00 PM 91.4 °F 48.2 °F 23% 30.09 in - SE 1.2 mph - N/A   Clear
4:00 PM 93.2 °F 48.2 °F 21% 30.06 in - ENE 5.8 mph - N/A   Clear
5:00 PM 95.0 °F 44.6 °F 18% 30.04 in - East 6.9 mph - N/A   Clear
6:00 PM 95.0 °F 42.8 °F 16% 30.01 in - NE 6.9 mph - N/A   Clear
7:00 PM 95.0 °F 41.0 °F 15% 30.01 in - East 8.1 mph - N/A   Clear
8:00 PM 98 °F 36 °F 6% 29.98 in 19 mi East 6.9 mph - -  
8:00 PM 95.0 °F 39.2 °F 14% 29.98 in - East 6.9 mph - N/A   Clear
9:00 PM 87.8 °F 48.2 °F 25% 30.01 in - SW 10.4 mph - N/A   Clear